Regional Weather Roundup
Issued by NWS Charleston, SC

Current Version | Previous Version | Graphics & Text | Print | Product List | Glossary On
Versions: 1 2 3 4 5 6 7 8 9 10 11 12 13 14 15 16 17 18 19 20 21 22 23 24 25 26 27 28 29 30 31 32 33 34 35 36 37 38 39 40 41 42 43 44 45 46 47 48 49 50
000
ASUS42 KCHS 251325
RWRCHS

REGIONAL WEATHER ROUNDUP
NATIONAL WEATHER SERVICE CHARLESTON SC
800 AM EST SUN JAN 25 2015

NOTE: "FAIR" INDICATES FEW OR NO CLOUDS BELOW 12,000 FEET WITH NO
SIGNIFICANT WEATHER AND/OR OBSTRUCTIONS TO VISIBILITY.

NOT ALL STATIONS ARE QUALITY CONTROLLED BY THE NATIONAL
WEATHER SERVICE. USE DATA WITH CAUTION...ESPECIALLY
DEWPOINT OBSERVATIONS.

SCZ027-030-031-034>040-042>050-251400-
...SOUTHEAST SOUTH CAROLINA...

CITY           SKY/WX    TMP DP  RH WIND       PRES   REMARKS
N CHARLESTON   PTCLDY    37  31  78 CALM      30.03R
WATERFRONT PRK   N/A     39 N/A N/A W6          N/A  WCI  35
MOUNT PLEASANT LGT RAIN N/A N/A N/A CALM      30.02R
PINOPOLIS      NOT AVBL
MONCKS CORNER  FAIR      37  32  81 SW3       30.02R
SUMMERVILLE    FAIR      36  34  93 SW3       30.04R
BEAUFORT MCAS  FAIR      39  31  72 W3        30.04R
BEAUFORT ARPT  FAIR      41  34  75 W8        30.03F
HILTON HEAD IS CLEAR     39  32  75 SW9       30.05R WCI  33
WALTERBORO     SUNNY     37 N/A N/A W3        30.03S
ALLENDALE      FAIR      37  32  81 CALM      30.01S

...SOUTHERN MIDLANDS AND PEE DEE...

CITY           SKY/WX    TMP DP  RH WIND       PRES   REMARKS
GEORGETOWN     NOT AVBL
KINGSTREE      NOT AVBL
ORANGEBURG     CLEAR     32  30  92 SW3       30.01R
BARNWELL         N/A     36  32  87 SW5       30.01S WCI  32
AIKEN          FAIR      36  32  87 SW5       30.00F WCI  32
MANNING        NOT AVBL
COLUMBIA       MOCLDY    31  28  89 CALM      29.98S
SUMTER         CLEAR     36  29  74 SW1       29.98R
FLORENCE       CLEAR     32  29  88 CALM      29.98R
MYRTLE BEACH   CLEAR     36  30  80 CALM      30.00R
N MYRTLE BEACH CLEAR     37  33  85 CALM      29.97R

$$

GAZ063-065-086>088-099>101-113>116-118-119-134>141-150-251400-
...SOUTHEAST GEORGIA...

CITY           SKY/WX    TMP DP  RH WIND       PRES   REMARKS
SAVANNAH ARPT  PTCLDY    36  30  79 W3        30.04S
HUNTER AAF     CLEAR     36  32  85 W2        30.02F
FORT STEWART   CLEAR     37  33  86 CALM      30.02F
STATESBORO     CLEAR     38  33  82 W3        30.02F
SYLVANIA       SUNNY     38  33  81 CALM      30.02F
CLAXTON        FAIR      34  34 100 CALM      30.03F

...CSRA...CENTRAL AND FAR SOUTHEAST GEORGIA...

CITY           SKY/WX    TMP DP  RH WIND       PRES   REMARKS
THOMSON        MOCLDY    35  33  90 CALM      30.03F
AUGUSTA-BUSH   MOCLDY    33  29  85 S3        30.01R
AUGUSTA-DANIEL MOCLDY    39  30  70 CALM      30.00R
SWAINSBORO     FAIR      36  28  75 CALM      30.02F
VIDALIA        CLEAR     36  34  93 CALM      30.03F
EASTMAN        FAIR      32  32 100 CALM      30.05F
HAZLEHURST     FAIR      37  37  99 SW5       30.03R WCI  33
ALMA           CLEAR     35  33  92 CALM      30.05S
WAYCROSS       CLEAR     40  38  90 CALM      30.05F
JESUP          FAIR      37  37 100 CALM      30.05F
BAXLEY         FAIR      37  36  93 SW3       30.04S
BRUNSWICK      CLEAR     41  34  75 CALM      30.06F
SAINT SIMONS   CLEAR     40  33  76 W5        30.05S WCI  37

$$

SCZ027-028-034-036>038-045-046-048>050-GAZ119-141-251400-
...LAKE AND SUPPLEMENTAL COASTAL OBSERVATIONS...

STATION/POSITION TIME  TEMP    WIND        PRES    WAVE   SWELL
                       AIR SEA DIR/SP/G            HT/PER HT/PER/DIR
                 (UTC) (F)     (DEG/KT/KT) (MB)    (FT/S) (FT/S/D)
UPR LAKE MARION  NOT AVBL
WINYAH BAY       1300   37     260/  4     1015.0R
LAKE MURRAY      1300   39     250/  3/  4 1014.2F
ACE BASIN NERRS  NOT AVBL
FORT PULASKI     1300   42 53  280/ 10/ 12 1017.4F
SAPELO ISLAND    1300   41     290/  5     1017.0F

$$

ANZ835-935-AMZ111-154-330-350-352-354-370-450-454-472-251400-
...C-MAN AND BUOY OBSERVATIONS...

STATION/POSITION TIME  TEMP    WIND        PRES    WAVE   SWELL
                       AIR SEA DIR/SP/G            HT/PER HT/PER/DIR
                 (UTC) (F)     (DEG/KT/KT) (MB)    (FT/S) (FT/S/D)
BUOY 41004       1300   51 69  310/ 12/ 16 1015.9R   5/ 7   3/ 7
BUOY 41008       1300   47 54  310/ 14/ 16 1017.7R   3/ 4
FOLLY BEACH CMAN 1300   40     290/  5/  8 1017.0R
CAPERS NEARSHORE 1200   44     310/ 12/ 14   N/A
FRIPP NEARSHORE  1200   44     290/ 12/ 14   N/A


STATION/POSITION TIME  TEMP    WIND        PRES    WAVE   SWELL
                       AIR SEA DIR/SP/G            HT/PER HT/PER/DIR
                 (UTC) (F)     (DEG/KT/KT) (MB)    (FT/S) (FT/S/D)
5E ST. MARYS GA  1300      58                N/A     2/ 3
FRYING PAN BUOY  1300   50 66  340/ 10/ 12 1015.3R   5/ 8   5/210/ 8
BUOY 41025       1300   48 70  320/ 17/ 23 1013.1R   7/10   3/160/10
CAPE LOOKOUT NC  1300   44     310/ 10/ 13 1014.6R
BUOY 41002       1223   64 72  290/ 14/ 19 1014.0R  11/10  10/240/10
BUOY 41010       1300   65 76  330/ 12/ 17 1016.6R   7/ 8
ST AUGUSTINE FL  1300   43     230/  5/  6 1019.2R


$$


USA.gov is the U.S. government's official web portal to all federal, state and local government web resources and services.